Date,TemperatureHighF,TemperatureAvgF,TemperatureLowF,DewpointHighF,DewpointAvgF,DewpointLowF,HumidityHigh,HumidityAvg,HumidityLow,PressureMaxIn,PressureMinIn,WindSpeedMaxMPH,WindSpeedAvgMPH,GustSpeedMaxMPH,PrecipitationSumIn
2013-10-1,70.3,58.4,51.8,50.2,48.2,46.4,82,70,49,30.02,29.95,2,0,3,0.00
2013-10-2,78.9,58.8,48.5,52.8,46.8,41.8,86,68,32,30.08,29.94,6,1,11,0.00
2013-10-3,75.9,61.3,46.4,44.0,35.1,23.1,85,44,16,30.10,29.95,8,2,17,0.00
2013-10-4,84.5,68.4,55.9,34.5,25.8,19.6,42,21,10,30.12,29.98,6,2,15,0.00
2013-10-5,90.3,71.3,57.0,29.0,24.4,16.9,33,19,10,30.20,30.08,8,2,16,0.00
2013-10-6,89.9,69.0,56.3,35.3,26.6,19.2,32,22,10,30.16,30.01,8,1,11,0.00
2013-10-7,82.7,63.3,51.0,52.2,36.2,23.2,85,41,18,30.06,29.89,9,1,11,0.00
2013-10-8,66.7,54.3,46.4,51.6,46.8,40.1,93,77,53,29.98,29.79,7,2,11,0.00
2013-10-9,65.4,54.3,47.1,47.8,45.4,41.9,88,73,51,29.84,29.69,6,1,11,0.00
2013-10-10,61.8,51.0,43.8,49.5,45.1,39.9,91,81,62,30.09,29.83,8,1,13,0.00
2013-10-11,68.5,53.7,46.2,50.7,46.8,43.3,94,79,51,30.15,30.01,8,1,10,0.00
2013-10-12,66.9,52.0,41.9,52.1,45.5,40.5,97,81,50,30.08,29.95,8,1,11,0.00
2013-10-13,69.6,52.9,43.5,51.8,46.3,42.1,97,80,48,30.13,30.01,8,1,11,0.00
2013-10-14,82.2,64.1,48.2,45.4,38.4,32.7,82,43,19,30.15,29.98,7,2,10,0.00
2013-10-15,86.1,67.9,53.7,37.0,31.3,24.4,46,28,12,30.07,29.92,7,2,10,0.00
2013-10-16,84.9,66.2,53.9,39.7,30.1,18.0,45,29,10,30.11,30.04,9,1,16,0.00
2013-10-17,84.3,65.7,53.9,44.4,34.1,23.9,48,33,16,30.12,29.95,6,1,13,0.00
2013-10-18,83.3,63.2,51.2,47.6,34.3,21.9,81,40,11,30.10,29.97,6,1,11,0.00
2013-10-19,82.4,59.8,45.8,48.6,41.6,31.7,91,57,17,30.12,30.00,5,1,9,0.00
2013-10-20,73.7,53.4,41.9,51.2,45.4,40.8,98,78,40,30.10,29.93,6,1,9,0.00
2013-10-21,61.8,51.5,46.4,50.7,47.3,45.0,95,86,57,30.06,29.96,4,1,7,0.00
2013-10-22,69.0,50.8,40.1,53.6,46.4,39.8,99,87,51,30.08,29.98,7,1,11,0.00
2013-10-23,65.1,49.7,41.5,54.0,46.9,41.2,99,91,63,30.04,29.95,7,1,11,0.00
2013-10-24,57.5,49.6,45.6,52.6,48.2,44.8,99,95,81,30.17,30.03,4,1,8,0.00
2013-10-25,71.4,53.6,42.8,54.4,47.0,42.2,99,81,47,30.22,30.09,7,1,12,0.01
2013-10-26,76.6,56.3,46.4,52.6,48.1,44.7,97,77,39,30.19,30.03,5,1,8,0.00
2013-10-27,60.4,49.7,41.9,53.8,46.6,41.6,99,90,72,30.11,29.80,9,2,21,0.01
2013-10-28,65.3,54.4,49.4,51.1,46.3,42.4,93,76,45,29.93,29.76,8,2,19,0.01
2013-10-29,59.7,51.5,44.4,53.8,47.9,42.4,99,88,66,30.12,29.93,4,1,9,0.02
2013-10-30,69.4,53.7,42.2,51.7,44.9,41.9,99,76,43,30.19,30.08,8,1,11,0.00
2013-10-31,74.8,57.9,46.7,48.8,44.0,41.2,86,63,36,30.22,30.06,6,1,11,0.00